GW1943 Weather Reports


time (UTC)temp
C
wind
direction
speed
KPH
gust
KPH
rain 1hr
cm
rain 24hr
cm
rain mn
cm
humidity
%
barometer
mb
20260503223544 29 208 3.2 3.2 0.00 0.00 0.00 40 1012.5
20260503223039 28 207 1.6 3.2 0.00 0.00 0.00 40 1012.3
20260503222538 27 214 3.2 9.7 0.00 0.00 0.00 41 1012.5
20260503222036 28 83 4.8 8.0 0.00 0.00 0.00 41 1012.8
20260503221533 27 68 1.6 8.0 0.00 0.00 0.00 42 1012.8
20260503221031 28 147 3.2 11.3 0.00 0.00 0.00 41 1012.9
20260503220527 28 232 0.0 3.2 0.00 0.00 0.00 39 1012.9
20260503220024 28 216 0.0 4.8 0.00 0.00 0.00 42 1012.8
20260503215521 28 245 1.6 4.8 0.00 0.00 0.00 40 1012.6
20260503215018 29 231 1.6 4.8 0.00 0.00 0.00 37 1012.9
20260503214516 28 224 0.0 4.8 0.00 0.00 0.00 38 1013.1
20260503214012 28 212 1.6 4.8 0.00 0.00 0.00 39 1012.9
20260503213511 28 214 3.2 8.0 0.00 0.00 0.00 41 1012.9
20260503213007 28 46 4.8 4.8 0.00 0.00 0.00 37 1013.1
20260503212505 28 219 1.6 3.2 0.00 0.00 0.00 40 1013.3
20260503212002 28 245 1.6 3.2 0.00 0.00 0.00 40 1013.1
20260503211458 27 236 1.6 3.2 0.00 0.00 0.00 45 1013.2
20260503210949 27 195 3.2 4.8 0.00 0.00 0.00 43 1013.0
20260503210446 26 27 4.8 8.0 0.00 0.00 0.00 43 1013.3
20260503205945 27 7 4.8 9.7 0.00 0.00 0.00 41 1013.4
20260503205443 27 212 0.0 1.6 0.00 0.00 0.00 46 1013.4
20260503204939 27 198 0.0 3.2 0.00 0.00 0.00 45 1013.7
20260503204436 26 210 0.0 3.2 0.00 0.00 0.00 44 1013.6
20260503203933 26 206 3.2 4.8 0.00 0.00 0.00 43 1013.5
20260503203431 26 186 1.6 4.8 0.00 0.00 0.00 44 1013.6
20260503202927 25 193 1.6 4.8 0.00 0.00 0.00 44 1013.6
20260503202426 25 6 6.4 8.0 0.00 0.00 0.00 44 1013.7
20260503201924 25 213 0.0 8.0 0.00 0.00 0.00 46 1013.7
20260503201421 26 40 3.2 3.2 0.00 0.00 0.00 44 1013.8
20260503200918 25 191 0.0 4.8 0.00 0.00 0.00 46 1013.9
20260503200414 26 220 1.6 4.8 0.00 0.00 0.00 47 1014.0
20260503195911 25 208 0.0 3.2 0.00 0.00 0.00 48 1013.9
20260503195409 25 196 1.6 3.2 0.00 0.00 0.00 46 1014.0
20260503194905 24 224 1.6 4.8 0.00 0.00 0.00 48 1014.0
20260503194401 24 262 1.6 9.7 0.00 0.00 0.00 49 1014.1
20260503193857 25 35 4.8 11.3 0.00 0.00 0.00 46 1014.2
20260503193353 25 215 1.6 3.2 0.00 0.00 0.00 46 1014.3
20260503192849 24 220 1.6 3.2 0.00 0.00 0.00 51 1014.4
20260503192345 24 193 0.0 0.0 0.00 0.00 0.00 51 1014.5
20260503191841 23 209 0.0 0.0 0.00 0.00 0.00 50 1014.3
20260503191338 23 215 0.0 0.0 0.00 0.00 0.00 52 1014.7
20260503190835 23 197 0.0 0.0 0.00 0.00 0.00 52 1014.7
20260503190332 23 224 0.0 0.0 0.00 0.00 0.00 54 1014.6
20260503185829 22 204 0.0 0.0 0.00 0.00 0.00 55 1014.6
20260503185325 23 160 0.0 0.0 0.00 0.00 0.00 54 1014.7
20260503184820 22 223 0.0 0.0 0.00 0.00 0.00 55 1014.8
20260503184316 22 221 0.0 0.0 0.00 0.00 0.00 58 1014.8
20260503183812 22 215 0.0 0.0 0.00 0.00 0.00 57 1014.8
20260503183309 22 222 0.0 0.0 0.00 0.00 0.00 59 1014.6
20260503182807 22 348 0.0 0.0 0.00 0.00 0.00 61 1014.8
20260503182306 22 218 0.0 0.0 0.00 0.00 0.00 62 1014.8
20260503181803 21 214 0.0 0.0 0.00 0.00 0.00 60 1014.8
20260503181300 21 191 0.0 0.0 0.00 0.00 0.00 60 1014.9
20260503180756 21 212 0.0 0.0 0.00 0.00 0.00 63 1014.7
20260503180254 21 217 0.0 0.0 0.00 0.00 0.00 67 1014.9
20260503175750 20 272 0.0 0.0 0.00 0.00 0.00 65 1015.1
20260503175248 20 47 0.0 0.0 0.00 0.00 0.00 64 1015.0
20260503174744 20 210 0.0 0.0 0.00 0.00 0.00 66 1015.0
20260503174242 20 212 0.0 0.0 0.00 0.00 0.00 65 1015.1
20260503173736 20 354 0.0 0.0 0.00 0.00 0.00 65 1015.0
20260503173233 20 205 0.0 0.0 0.00 0.00 0.00 67 1015.1
20260503172730 19 208 0.0 0.0 0.00 0.00 0.00 68 1015.0
20260503172227 19 197 0.0 0.0 0.00 0.00 0.00 65 1015.2
20260503171723 18 216 0.0 0.0 0.00 0.00 0.00 68 1015.0
20260503171221 18 235 0.0 0.0 0.00 0.00 0.00 68 1015.3
20260503170718 18 200 0.0 0.0 0.00 0.00 0.00 67 1015.2
20260503170215 18 195 0.0 0.0 0.00 0.00 0.00 67 1015.5
20260503160136 16 214 0.0 0.0 0.00 0.00 0.00 80 1015.4
20260503150606 13 208 0.0 0.0 0.00 0.00 0.00 90 1015.2
20260503130955 10 202 0.0 0.0 0.00 0.00 0.00 94 1015.4
20260503130453 10 202 0.0 0.0 0.00 0.00 0.00 94 1015.3
20260503110338 11 202 0.0 0.0 0.00 0.00 0.00 88 1015.4
20260503090218 12 202 0.0 0.0 0.00 0.00 0.00 80 1016.0
20260503081145 13 202 0.0 0.0 0.00 0.00 0.00 77 1015.9
20260503080641 13 202 0.0 0.0 0.00 0.00 0.00 76 1015.8
20260503080138 13 202 0.0 0.0 0.00 0.00 0.00 75 1015.9
20260503072614 14 202 0.0 0.0 0.00 0.00 0.00 72 1015.8
20260503072111 14 202 0.0 0.0 0.00 0.00 0.00 72 1015.9
20260503071608 15 202 0.0 0.0 0.00 0.00 0.00 71 1015.7
20260503071105 15 202 0.0 0.0 0.00 0.00 0.00 69 1015.7
20260503070601 15 202 0.0 0.0 0.00 0.00 0.00 68 1015.9
20260503055021 16 203 0.0 0.0 0.00 0.00 0.00 60 1015.6
20260503054517 17 202 0.0 0.0 0.00 0.00 0.00 59 1015.5
20260503054014 17 202 0.0 0.0 0.00 0.00 0.00 59 1015.5
20260503053512 17 202 0.0 0.0 0.00 0.00 0.00 59 1015.7
20260503053010 17 206 0.0 0.0 0.00 0.00 0.00 59 1015.6
20260503052506 17 201 0.0 0.0 0.00 0.00 0.00 60 1015.5
20260503052002 17 202 0.0 0.0 0.00 0.00 0.00 59 1015.5
20260503051458 17 202 0.0 0.0 0.00 0.00 0.00 60 1015.6
20260503050956 17 202 0.0 0.0 0.00 0.00 0.00 59 1015.7
20260503050451 17 202 0.0 0.0 0.00 0.00 0.00 57 1015.5
20260503045949 17 202 0.0 0.0 0.00 0.00 0.00 58 1015.6
20260503045446 17 202 0.0 0.0 0.00 0.00 0.00 57 1015.5
20260503044943 18 202 0.0 1.6 0.00 0.00 0.00 58 1015.5
20260503044440 17 199 0.0 1.6 0.00 0.00 0.00 56 1015.4
20260503043938 17 200 0.0 0.0 0.00 0.00 0.00 58 1015.2
20260503043433 17 199 0.0 0.0 0.00 0.00 0.00 58 1015.4
20260503042930 17 203 0.0 0.0 0.00 0.00 0.00 59 1015.5
20260503042427 17 202 0.0 0.0 0.00 0.00 0.00 60 1015.3
20260503041924 17 203 0.0 0.0 0.00 0.00 0.00 60 1015.4
20260503041420 17 203 0.0 0.0 0.00 0.00 0.00 62 1015.3
20260503040918 17 202 0.0 0.0 0.00 0.00 0.00 62 1015.3
20260503040415 18 202 0.0 0.0 0.00 0.00 0.00 61 1015.3
20260503035912 17 208 0.0 0.0 0.00 0.00 0.00 63 1015.2
20260503035409 17 219 0.0 1.6 0.00 0.00 0.00 62 1015.1
20260503034906 18 194 0.0 0.0 0.00 0.00 0.00 64 1015.0
20260503034404 18 194 0.0 0.0 0.00 0.00 0.00 64 1014.8
20260503033901 18 194 0.0 0.0 0.00 0.00 0.00 64 1014.7
20260503033358 18 194 0.0 0.0 0.00 0.00 0.00 63 1014.7
20260503032856 19 194 0.0 0.0 0.00 0.00 0.00 62 1014.7
20260503032355 20 194 0.0 0.0 0.00 0.00 0.00 60 1014.8
20260503031852 20 194 0.0 1.6 0.00 0.00 0.00 58 1014.6
20260503031349 20 195 0.0 0.0 0.00 0.00 0.00 58 1014.4
20260503030845 21 198 0.0 0.0 0.00 0.00 0.00 57 1014.4
20260503030342 21 199 0.0 0.0 0.00 0.00 0.00 56 1014.4
20260503025838 21 180 1.6 1.6 0.00 0.00 0.00 56 1014.2
20260503025336 21 120 3.2 3.2 0.00 0.00 0.00 56 1014.4
20260503024833 21 199 0.0 1.6 0.00 0.00 0.00 56 1014.4
20260503024330 22 198 1.6 3.2 0.00 0.00 0.00 54 1014.6
20260503023826 22 199 1.6 1.6 0.00 0.00 0.00 55 1014.2
20260503023324 22 186 0.0 3.2 0.00 0.00 0.00 54 1014.2
20260503022820 22 187 1.6 3.2 0.00 0.00 0.00 54 1014.0
20260503022315 22 201 0.0 1.6 0.00 0.00 0.00 54 1014.3
20260503021811 23 345 4.8 8.0 0.00 0.00 0.00 52 1014.2
20260503021308 23 219 1.6 1.6 0.00 0.00 0.00 53 1014.2
20260503020805 23 227 3.2 3.2 0.00 0.00 0.00 54 1014.1
20260503020303 23 187 0.0 8.0 0.00 0.00 0.00 55 1014.3
20260503015759 23 224 0.0 3.2 0.00 0.00 0.00 55 1014.1
20260503015256 23 193 0.0 1.6 0.00 0.00 0.00 54 1014.2
20260503014752 23 234 3.2 8.0 0.00 0.00 0.00 54 1014.3
20260503014250 23 36 0.0 4.8 0.00 0.00 0.00 53 1014.4
20260503013747 25 214 0.0 4.8 0.00 0.00 0.00 52 1014.3
20260503013244 25 197 0.0 3.2 0.00 0.00 0.00 51 1014.3
20260503012741 25 207 0.0 3.2 0.00 0.00 0.00 52 1014.2
20260503012239 24 76 0.0 1.6 0.00 0.00 0.00 52 1014.2
20260503011735 23 208 0.0 8.0 0.00 0.00 0.00 53 1014.1
20260503011232 24 316 4.8 8.0 0.00 0.00 0.00 51 1014.3
20260503010728 23 123 0.0 1.6 0.00 0.00 0.00 52 1014.4
20260503010225 24 55 4.8 4.8 0.00 0.00 0.00 51 1014.4
20260503005723 24 210 3.2 8.0 0.00 0.00 0.00 51 1014.3
20260503005220 24 236 3.2 8.0 0.00 0.00 0.00 50 1014.3
20260503004716 25 215 0.0 3.2 0.00 0.00 0.00 50 1014.4
20260503004215 25 79 1.6 4.8 0.00 0.00 0.00 50 1014.2
20260503003711 25 188 1.6 4.8 0.00 0.00 0.00 49 1014.5
20260503003208 24 37 6.4 8.0 0.00 0.00 0.00 49 1014.4
20260503002705 24 266 6.4 9.7 0.00 0.00 0.00 51 1014.5
20260503002202 23 212 4.8 11.3 0.00 0.00 0.00 50 1014.2
20260503001658 24 32 6.4 9.7 0.00 0.00 0.00 50 1014.4
20260503001154 24 223 4.8 4.8 0.00 0.00 0.00 50 1014.6
20260503000652 25 25 6.4 9.7 0.00 0.00 0.00 49 1014.8
20260503000149 25 207 0.0 4.8 0.00 0.00 0.00 53 1014.7
20260502235646 25 52 4.8 8.0 0.00 0.00 0.00 48 1014.6
20260502235144 25 211 1.6 4.8 0.00 0.00 0.00 49 1014.6
20260502234640 25 218 1.6 9.7 0.00 0.00 0.00 48 1014.7
20260502234138 25 201 1.6 4.8 0.00 0.00 0.00 49 1014.8
20260502233633 25 234 1.6 4.8 0.00 0.00 0.00 49 1014.8
20260502233130 25 125 4.8 8.0 0.00 0.00 0.00 48 1015.0
20260502232626 25 198 1.6 8.0 0.00 0.00 0.00 48 1015.0
20260502232124 25 217 0.0 1.6 0.00 0.00 0.00 53 1015.1
20260502231620 24 19 1.6 8.0 0.00 0.00 0.00 51 1015.2
20260502231118 24 189 3.2 8.0 0.00 0.00 0.00 50 1015.0
20260502230616 23 203 1.6 9.7 0.00 0.00 0.00 53 1015.1
20260502230114 24 40 3.2 8.0 0.00 0.00 0.00 51 1015.0
20260502225609 25 220 1.6 4.8 0.00 0.00 0.00 50 1015.2
20260502225107 24 194 1.6 3.2 0.00 0.00 0.00 51 1015.4
20260502224603 25 46 4.8 11.3 0.00 0.00 0.00 50 1015.4
20260502224100 25 220 4.8 4.8 0.00 0.00 0.00 48 1015.4